FW7820 Weather Reports


Display with metric or nautical units.
time (UTC)temp
F
wind
direction
speed
MPH
gust
MPH
rain 1hr
in
rain 24hr
in
rain mn
in
humidity
%
barometer
mb
20260507040249 74 68 0.0 0.0 0.00 0.86 0.86 99 1009.8
20260507035745 74 67 0.0 0.0 0.00 0.86 0.86 99 1010.5
20260507035240 74 61 0.0 0.0 0.00 0.86 0.86 99 1010.2
20260507034738 74 71 0.0 0.0 0.00 0.86 0.86 99 1009.8
20260507034235 74 73 0.0 0.0 0.00 0.86 0.86 99 1010.2
20260507033734 74 139 0.0 0.0 0.00 0.86 0.86 99 1010.3
20260507033231 74 175 0.0 0.0 0.00 0.86 0.86 99 1010.2
20260507032728 73 193 0.0 0.0 0.00 0.86 0.86 99 1010.1
20260507032224 73 75 0.0 0.0 0.00 0.86 0.86 99 1010.2
20260507031721 73 71 0.0 0.0 0.00 0.86 0.86 99 1010.4
20260507031217 73 61 0.0 0.0 0.00 0.86 0.86 99 1010.8
20260507030714 73 62 0.0 0.0 0.00 0.86 0.86 99 1010.9
20260507030212 73 61 0.0 0.0 0.00 0.86 0.86 99 1011.0
20260507025708 73 57 0.0 0.0 0.00 0.86 0.86 99 1010.8
20260507025206 73 94 0.0 0.0 0.00 0.86 0.86 99 1010.7
20260507024704 73 87 0.0 0.0 0.00 0.86 0.86 99 1010.5
20260507024200 72 73 0.0 0.0 0.00 0.86 0.86 99 1010.8
20260507023656 73 58 0.0 0.0 0.00 0.86 0.86 99 1010.4
20260507023154 73 70 0.0 0.0 0.00 0.86 0.86 99 1010.4
20260507022650 72 9 0.0 0.0 0.00 0.86 0.86 99 1010.4
20260507022146 72 71 0.0 0.0 0.00 0.86 0.86 99 1010.1
20260507021643 72 0 0.0 0.0 0.00 0.86 0.86 99 1010.2
20260507021138 72 49 0.0 0.0 0.00 0.86 0.86 99 1010.2
20260507020637 71 70 0.0 0.0 0.00 0.86 0.86 99 1010.3
20260507020132 71 64 0.0 0.0 0.00 0.86 0.86 99 1010.3
20260507015631 71 59 0.0 0.0 0.00 0.86 0.86 99 1010.6
20260507015128 72 57 0.0 0.0 0.00 0.86 0.86 99 1010.6
20260507014624 72 56 0.0 0.0 0.00 0.86 0.86 99 1010.7
20260507014120 72 45 0.0 0.0 0.00 0.86 0.86 99 1011.0
20260507013617 71 352 0.0 1.0 0.00 0.86 0.86 99 1010.8
20260507013114 71 58 0.0 0.0 0.00 0.86 0.86 99 1010.8
20260507012612 71 69 0.0 0.0 0.00 0.86 0.86 99 1010.5
20260507012107 71 69 0.0 0.0 0.00 0.86 0.86 99 1010.7
20260507011606 71 65 0.0 0.0 0.00 0.86 0.86 99 1010.6
20260507011101 71 63 0.0 0.0 0.00 0.86 0.86 99 1010.6
20260507010556 71 65 0.0 0.0 0.00 0.86 0.86 99 1010.5
20260507010052 71 74 0.0 0.0 0.00 0.86 0.86 99 1010.5
20260507005550 71 73 0.0 0.0 0.00 0.86 0.86 99 1010.1
20260507005046 71 66 0.0 0.0 0.00 0.86 0.86 99 1010.5
20260507004543 71 55 0.0 1.0 0.00 0.86 0.86 99 1010.4
20260507004041 71 71 0.0 0.0 0.00 0.86 0.86 99 1010.3
20260507003536 71 58 0.0 0.0 0.00 0.86 0.86 99 1010.8
20260507003032 71 72 0.0 0.0 0.12 0.86 0.86 99 1010.8
20260507002529 71 79 0.0 0.0 0.66 0.86 0.86 99 1010.9
20260507002024 71 110 0.0 0.0 0.71 0.84 0.84 99 1011.0
20260507001521 71 82 0.0 1.0 1.68 0.75 0.75 99 1011.6
20260507001019 74 93 0.0 1.0 2.53 0.72 0.72 99 1011.3
20260507000514 76 237 3.0 3.0 1.61 0.49 0.49 99 1009.9
20260507000010 76 88 0.0 0.0 0.78 0.30 0.30 99 1010.4
20260506235508 76 105 0.0 0.0 0.47 0.21 0.21 99 1009.5
20260506235003 76 99 0.0 0.0 0.42 0.16 0.16 99 1009.5
20260506234501 76 58 0.0 0.0 0.24 0.12 0.12 99 1009.2
20260506233958 76 79 0.0 0.0 0.07 0.09 0.09 99 1009.4
20260506233454 76 70 0.0 0.0 0.00 0.08 0.08 99 1009.3
20260506232951 76 53 0.0 0.0 0.00 0.08 0.08 99 1010.1
20260506232448 76 336 0.0 1.0 0.00 0.08 0.08 99 1009.6
20260506231943 76 72 0.0 0.0 0.00 0.08 0.08 99 1009.7
20260506231441 77 60 0.0 0.0 0.00 0.08 0.08 99 1009.9
20260506230938 77 3 0.0 0.0 0.00 0.08 0.08 99 1009.8
20260506230434 77 65 0.0 0.0 0.00 0.08 0.08 99 1010.0
20260506225931 77 74 0.0 0.0 0.00 0.08 0.08 99 1009.7
20260506225429 77 87 0.0 0.0 0.00 0.08 0.08 99 1010.2
20260506224925 77 285 0.0 1.0 0.00 0.08 0.08 99 1009.9
20260506224423 77 59 0.0 0.0 0.00 0.08 0.08 99 1009.8
20260506223919 77 75 0.0 0.0 0.00 0.08 0.08 99 1009.9
20260506223414 77 61 0.0 0.0 0.00 0.08 0.08 99 1009.9
20260506222912 77 90 0.0 0.0 0.00 0.08 0.08 99 1010.0
20260506222409 77 70 0.0 0.0 0.00 0.08 0.08 99 1009.9
20260506221906 77 43 0.0 0.0 0.00 0.08 0.08 99 1010.1
20260506221403 77 78 0.0 0.0 0.00 0.08 0.08 99 1010.2
20260506220900 78 223 0.0 0.0 0.00 0.08 0.08 99 1010.4
20260506220355 78 223 0.0 0.0 0.00 0.08 0.08 99 1010.5
20260506215852 78 223 0.0 0.0 0.00 0.08 0.08 99 1010.2
20260506215348 78 67 0.0 0.0 0.00 0.08 0.08 99 1010.1
20260506214844 78 76 0.0 0.0 0.00 0.08 0.08 99 1010.3
20260506214341 79 86 0.0 0.0 0.00 0.08 0.08 99 1010.6
20260506213839 79 71 0.0 0.0 0.00 0.08 0.08 99 1010.5
20260506213336 80 57 0.0 0.0 0.00 0.08 0.08 99 1010.9
20260506212833 80 84 0.0 0.0 0.00 0.08 0.08 99 1010.9
20260506212329 80 86 0.0 0.0 0.00 0.08 0.08 99 1010.9
20260506211824 80 68 0.0 0.0 0.00 0.08 0.08 99 1010.9
20260506211321 80 60 0.0 0.0 0.00 0.08 0.08 99 1010.9
20260506210818 80 72 0.0 0.0 0.00 0.08 0.08 99 1010.9
20260506210315 80 101 0.0 0.0 0.00 0.08 0.08 99 1011.3
20260506205812 80 80 0.0 0.0 0.00 0.08 0.08 99 1011.4
20260506205308 80 99 0.0 0.0 0.00 0.08 0.08 99 1011.3
20260506204804 80 74 0.0 0.0 0.00 0.08 0.08 99 1011.3
20260506204303 80 67 0.0 0.0 0.00 0.08 0.08 99 1011.5
20260506203800 80 52 0.0 0.0 0.00 0.08 0.08 99 1011.4
20260506203257 79 84 0.0 0.0 0.00 0.08 0.08 99 1011.3
20260506202754 79 65 0.0 0.0 0.00 0.08 0.08 99 1011.4
20260506202251 79 72 0.0 0.0 0.05 0.08 0.08 99 1011.6
20260506201747 79 80 0.0 0.0 0.05 0.08 0.08 99 1011.9
20260506201244 79 81 0.0 0.0 0.07 0.07 0.07 98 1012.0
20260506200741 80 77 0.0 0.0 0.38 0.07 0.07 97 1011.9
20260506200238 80 84 0.0 1.0 0.31 0.06 0.06 95 1011.9
20260506195734 81 85 0.0 0.0 0.00 0.01 0.01 94 1011.9
20260506195230 81 101 1.0 1.0 0.00 0.01 0.01 93 1012.0
20260506194728 81 86 0.0 0.0 0.00 0.01 0.01 92 1011.9
20260506194224 81 90 0.0 0.0 0.00 0.01 0.01 92 1012.2
20260506193722 81 75 0.0 0.0 0.00 0.01 0.01 93 1012.4
20260506193219 81 87 1.0 1.0 0.00 0.01 0.01 92 1012.3
20260506192715 80 73 0.0 0.0 0.00 0.01 0.01 93 1012.5
20260506192212 80 75 0.0 0.0 0.00 0.01 0.01 93 1012.7
20260506191709 81 113 1.0 2.0 0.00 0.01 0.01 92 1012.9
20260506191205 81 102 0.0 1.0 0.00 0.01 0.01 91 1013.0
20260506190703 82 258 0.0 0.0 0.00 0.01 0.01 90 1012.9
20260506190159 82 188 0.0 0.0 0.00 0.01 0.01 88 1012.9
20260506185656 83 4 1.0 1.0 0.00 0.01 0.01 88 1012.8
20260506185152 83 49 0.0 0.0 0.00 0.01 0.01 91 1013.0
20260506184650 82 115 0.0 1.0 0.00 0.01 0.01 91 1013.0
20260506184147 81 72 0.0 1.0 0.00 0.01 0.01 92 1012.8
20260506183644 81 101 0.0 1.0 0.00 0.01 0.01 92 1013.2
20260506183140 81 130 0.0 0.0 0.00 0.01 0.01 92 1013.2
20260506182637 81 105 0.0 1.0 0.00 0.01 0.01 92 1013.0
20260506182134 81 69 0.0 0.0 0.00 0.01 0.01 92 1013.0
20260506181632 81 134 0.0 1.0 0.00 0.01 0.01 91 1013.2
20260506181129 81 153 0.0 0.0 0.00 0.01 0.01 93 1013.4
20260506180626 81 139 0.0 0.0 0.00 0.01 0.01 93 1013.2
20260506180122 80 36 0.0 0.0 0.00 0.01 0.01 94 1013.4
20260506175618 80 79 0.0 0.0 0.00 0.01 0.01 94 1013.3
20260506175114 79 70 0.0 0.0 0.00 0.01 0.01 94 1013.5
20260506174614 79 96 0.0 0.0 0.00 0.01 0.01 94 1013.7
20260506174110 80 70 0.0 0.0 0.00 0.01 0.01 94 1013.6
20260506173608 80 147 0.0 1.0 0.00 0.01 0.01 94 1013.7
20260506173104 80 113 0.0 0.0 0.00 0.01 0.01 94 1013.6
20260506172602 80 105 0.0 1.0 0.00 0.01 0.01 93 1013.7
20260506172057 79 94 0.0 0.0 0.00 0.01 0.01 95 1013.9
20260506171555 79 109 0.0 0.0 0.00 0.01 0.01 96 1013.8
20260506171053 78 90 0.0 0.0 0.00 0.01 0.01 97 1013.9
20260506170550 78 89 0.0 1.0 0.00 0.01 0.01 98 1013.8
20260506170047 77 59 0.0 0.0 0.00 0.01 0.01 99 1014.1
20260506165546 77 95 0.0 0.0 0.00 0.01 0.01 99 1013.9
20260506165042 77 20 0.0 0.0 0.00 0.01 0.01 99 1013.9
20260506164539 77 70 0.0 0.0 0.00 0.01 0.01 99 1013.9
20260506164036 76 45 0.0 0.0 0.00 0.01 0.01 99 1014.0
20260506163532 76 42 0.0 0.0 0.00 0.01 0.01 99 1014.2
20260506163027 76 69 0.0 0.0 0.00 0.01 0.01 99 1014.0
20260506162524 76 71 0.0 0.0 0.00 0.01 0.01 99 1014.0
20260506162021 77 78 0.0 0.0 0.00 0.01 0.01 99 1013.9
20260506161519 77 68 0.0 0.0 0.00 0.01 0.01 99 1014.0
20260506161015 76 75 0.0 0.0 0.05 0.01 0.01 99 1013.7
20260506160513 75 70 0.0 0.0 0.05 0.01 0.01 99 1013.7
20260506160010 75 74 0.0 0.0 0.00 0.00 0.00 99 1013.8
20260506155508 75 59 0.0 0.0 0.00 0.00 0.00 99 1013.8
20260506153640 75 70 0.0 0.0 0.00 0.00 0.00 99 1013.9
20260506153137 74 68 0.0 0.0 0.00 0.00 0.00 99 1014.0
20260506152634 74 59 0.0 0.0 0.00 0.00 0.00 99 1013.8
20260506152132 74 59 0.0 0.0 0.00 0.00 0.00 99 1013.9
20260506151630 74 73 0.0 0.0 0.00 0.00 0.00 99 1013.7
20260506151127 74 66 0.0 0.0 0.00 0.00 0.00 99 1013.8
20260506150624 74 59 0.0 0.0 0.00 0.00 0.00 99 1013.9
20260506150120 74 69 0.0 0.0 0.00 0.00 0.00 99 1013.6
20260506145618 74 76 0.0 0.0 0.00 0.00 0.00 99 1014.0
20260506145114 74 68 0.0 0.0 0.00 0.00 0.00 99 1013.8
20260506144612 74 70 0.0 0.0 0.00 0.00 0.00 99 1013.9
20260506144108 74 70 0.0 0.0 0.00 0.00 0.00 99 1013.8
20260506143606 73 76 0.0 0.0 0.00 0.00 0.00 99 1013.7
20260506143104 73 35 0.0 0.0 0.00 0.00 0.00 99 1013.7
20260506142602 73 244 0.0 0.0 0.00 0.00 0.00 99 1013.7
20260506142100 73 68 0.0 0.0 0.00 0.00 0.00 99 1013.6
20260506141557 73 67 0.0 0.0 0.00 0.00 0.00 99 1013.6
20260506141055 73 68 0.0 0.0 0.00 0.00 0.00 99 1013.3
20260506140552 73 61 0.0 0.0 0.00 0.00 0.00 99 1013.5
20260506140050 73 48 0.0 0.0 0.00 0.00 0.00 99 1013.4
20260506135546 73 64 0.0 0.0 0.00 0.00 0.00 99 1013.4
20260506135042 73 64 0.0 0.0 0.00 0.00 0.00 99 1013.2
20260506134539 73 80 0.0 0.0 0.00 0.00 0.00 99 1013.2
20260506134035 73 54 0.0 0.0 0.00 0.00 0.00 99 1013.2
20260506133532 73 68 0.0 0.0 0.00 0.00 0.00 99 1013.0
20260506133029 73 76 0.0 0.0 0.00 0.00 0.00 99 1013.0
20260506132526 72 66 0.0 0.0 0.00 0.00 0.00 99 1013.1
20260506132024 72 76 0.0 0.0 0.00 0.00 0.00 99 1013.0
20260506131521 72 69 0.0 0.0 0.00 0.00 0.00 99 1013.2
20260506131017 72 68 0.0 0.0 0.00 0.00 0.00 99 1013.1
20260506130514 72 71 0.0 0.0 0.00 0.00 0.00 99 1013.3
20260506130012 72 48 0.0 0.0 0.00 0.00 0.00 99 1013.1
20260506125510 71 66 0.0 0.0 0.00 0.00 0.00 99 1013.1
20260506125007 71 68 0.0 0.0 0.00 0.00 0.00 99 1012.9
20260506124505 71 90 0.0 0.0 0.00 0.00 0.00 99 1012.9
20260506124003 71 71 0.0 0.0 0.00 0.00 0.00 99 1012.8
20260506123500 71 99 0.0 0.0 0.00 0.00 0.00 99 1012.6
20260506122958 71 87 0.0 0.0 0.00 0.00 0.00 99 1012.7
20260506122455 71 72 0.0 0.0 0.00 0.00 0.00 99 1012.6
20260506121953 71 68 0.0 0.0 0.00 0.00 0.00 99 1012.6
20260506121450 71 68 0.0 0.0 0.00 0.00 0.00 99 1012.6
20260506120946 71 48 0.0 0.0 0.00 0.00 0.00 99 1012.1
20260506120444 71 66 0.0 0.0 0.00 0.00 0.00 99 1012.1
20260506115941 71 84 0.0 0.0 0.00 0.00 0.00 99 1012.0
20260506115439 71 76 0.0 0.0 0.00 0.00 0.00 99 1012.0
20260506114937 71 100 0.0 0.0 0.00 0.00 0.00 99 1011.9
20260506114434 71 82 0.0 0.0 0.00 0.00 0.00 99 1012.0
20260506113933 71 75 0.0 0.0 0.00 0.00 0.00 99 1012.0
20260506113430 70 59 0.0 0.0 0.00 0.00 0.00 99 1011.8
20260506112926 70 74 0.0 0.0 0.00 0.00 0.00 99 1011.8
20260506112424 70 59 0.0 0.0 0.00 0.00 0.00 99 1011.7
20260506111921 70 83 0.0 0.0 0.00 0.00 0.00 99 1011.7
20260506111419 70 76 0.0 0.0 0.00 0.00 0.00 99 1012.0
20260506110910 70 77 0.0 0.0 0.00 0.00 0.00 99 1011.7
20260506110408 70 71 0.0 0.0 0.00 0.00 0.00 99 1011.9
20260506105905 70 60 0.0 0.0 0.00 0.00 0.00 99 1011.8
20260506105401 70 56 0.0 0.0 0.00 0.00 0.00 99 1012.2
20260506104858 70 60 0.0 0.0 0.00 0.00 0.00 99 1011.9
20260506104356 70 59 0.0 0.0 0.00 0.00 0.00 99 1011.7
20260506103853 70 76 0.0 0.0 0.00 0.00 0.00 99 1011.9
20260506103351 70 76 0.0 0.0 0.00 0.00 0.00 99 1012.0
20260506102848 70 73 0.0 0.0 0.00 0.00 0.00 99 1011.5
20260506102346 70 83 0.0 0.0 0.00 0.00 0.00 99 1011.6
20260506101843 70 72 0.0 0.0 0.00 0.00 0.00 99 1011.6
20260506101339 70 76 0.0 0.0 0.00 0.00 0.00 99 1011.5
20260506100837 70 80 0.0 0.0 0.00 0.00 0.00 99 1011.3
20260506100335 70 75 0.0 0.0 0.00 0.00 0.00 99 1011.4
20260506095833 70 80 0.0 0.0 0.00 0.00 0.00 99 1011.5
20260506095330 70 77 0.0 0.0 0.00 0.00 0.00 99 1011.4
20260506094826 70 86 0.0 0.0 0.00 0.00 0.00 99 1011.4
20260506094325 70 78 0.0 0.0 0.00 0.00 0.00 99 1011.5
20260506093823 70 90 0.0 0.0 0.00 0.00 0.00 99 1011.5
20260506093320 70 91 0.0 0.0 0.00 0.00 0.00 98 1011.6
20260506092818 70 137 0.0 0.0 0.00 0.00 0.00 98 1011.5
20260506092316 70 82 0.0 0.0 0.00 0.00 0.00 98 1011.2
20260506091812 70 85 0.0 0.0 0.00 0.00 0.00 99 1011.3
20260506091310 70 69 0.0 0.0 0.00 0.00 0.00 98 1011.1
20260506090807 70 147 0.0 0.0 0.00 0.00 0.00 99 1010.9
20260506090304 70 90 0.0 0.0 0.00 0.00 0.00 99 1010.8
20260506085801 70 90 0.0 0.0 0.00 0.00 0.00 99 1010.8
20260506085257 70 146 0.0 0.0 0.00 0.00 0.00 99 1010.7
20260506084754 70 104 0.0 0.0 0.00 0.00 0.00 99 1010.8
20260506084250 70 84 0.0 0.0 0.00 0.00 0.00 99 1010.8
20260506083748 70 83 0.0 0.0 0.00 0.00 0.00 99 1010.8
20260506083245 70 96 0.0 0.0 0.00 0.00 0.00 99 1010.9
20260506082743 70 82 0.0 0.0 0.00 0.00 0.00 99 1011.1
20260506082237 70 75 0.0 0.0 0.00 0.00 0.00 99 1011.1
20260506081736 70 68 0.0 0.0 0.00 0.00 0.00 99 1010.9
20260506081233 70 86 0.0 0.0 0.00 0.00 0.00 99 1010.9
20260506080731 70 80 0.0 0.0 0.00 0.00 0.00 99 1011.0
20260506080227 70 75 0.0 0.0 0.00 0.00 0.00 99 1011.1
20260506073211 70 86 0.0 0.0 0.00 0.00 0.00 99 1011.5
20260506072708 70 83 0.0 0.0 0.00 0.00 0.00 99 1011.2
20260506072206 70 93 0.0 0.0 0.00 0.00 0.00 99 1011.3
20260506071703 70 100 0.0 0.0 0.00 0.00 0.00 99 1011.3
20260506071201 70 102 0.0 0.0 0.00 0.00 0.00 99 1011.5
20260506070657 70 74 0.0 0.0 0.00 0.00 0.00 99 1011.2
20260506070154 70 87 0.0 0.0 0.00 0.00 0.00 99 1011.3
20260506062131 69 81 0.0 0.0 0.00 0.00 0.00 99 1011.7
20260506061627 69 112 1.0 1.0 0.00 0.00 0.00 99 1011.6
20260506061125 69 111 0.0 0.0 0.00 0.00 0.00 99 1011.7
20260506060624 69 81 1.0 1.0 0.00 0.00 0.00 99 1011.8
20260506060120 69 95 0.0 0.0 0.00 0.00 0.00 99 1011.7
20260506051052 69 18 1.0 2.0 0.00 0.00 0.00 99 1012.0
20260506050550 69 76 0.0 0.0 0.00 0.00 0.00 99 1012.0
20260506045040 69 92 0.0 0.0 0.00 0.00 0.00 99 1011.9
20260506044538 69 137 0.0 0.0 0.00 0.00 0.00 99 1011.8
20260506044035 69 197 0.0 0.0 0.00 0.00 0.00 99 1012.0
20260506043532 69 74 0.0 0.0 0.00 0.00 0.00 99 1011.9
20260506043030 69 81 0.0 0.0 0.00 0.00 0.00 99 1012.2
20260506042529 69 74 0.0 0.0 0.00 0.00 0.00 99 1012.1
20260506042027 69 98 0.0 0.0 0.00 0.00 0.00 99 1012.1
20260506041525 69 101 0.0 0.0 0.00 0.00 0.00 99 1012.3
20260506041022 69 85 0.0 0.0 0.00 0.00 0.00 98 1012.5
20260506040520 69 53 0.0 0.0 0.00 0.00 0.00 98 1012.2